Regional Weather Roundup
Issued by NWS

Home | Current Version | Previous Version | Graphics & Text | Print | Product List | Glossary On
Versions: 1 2 3 4 5 6 7 8 9 10 11 12 13 14 15 16 17 18 19 20 21 22 23 24 25 26 27 28 29 30 31 32 33 34 35 36 37 38 39 40 41 42 43 44 45 46 47 48 49 50
000
ASUS43 KMPX 230001
RWRMN
WEATHER ROUNDUP FOR MINNESOTA
NATIONAL WEATHER SERVICE TWIN CITIES/CHANHASSEN MN
600 PM CST SUN JAN 22 2017


NOTE: "FAIR" INDICATES FEW OR NO CLOUDS BELOW 12,000 FEET WITH NO
SIGNIFICANT WEATHER AND/OR OBSTRUCTIONS TO VISIBILITY. N/A MEANS
CURRENT SKY AND/OR WEATHER CONDITIONS ARE NOT AVAILABLE.

MNZ060>063-068>070-230100-
   Twin Cities Metro

CITY           SKY/WX    TMP DP  RH WIND       PRES   REMARKS
TWIN CITIES    CLOUDY    38  34  85 W8        29.76R
6HR MIN TEMP:  38; 6HR MAX TEMP:  40;

ST PAUL        CLOUDY    38  36  92 W7        29.76R
CRYSTAL        CLOUDY    37  34  89 W5        29.74R
BLAINE         CLOUDY    39  39 100 W6        29.74R
LAKEVILLE      CLOUDY    36  36 100 W7        29.75R
EDEN PRAIRIE   CLOUDY    37  34  89 W6        29.75R
6HR MIN TEMP:  37; 6HR MAX TEMP:  40;

SOUTH ST PAUL  CLOUDY    39  37  92 W5        29.75R
LAKE ELMO      CLOUDY    36  36 100 W5        29.75R
$$
MNZ001>005-007-008-013>017-022>024-027-028-230100-
   Northwest Minnesota

CITY           SKY/WX    TMP DP  RH WIND       PRES   REMARKS
BEMIDJI        CLOUDY    33  33  99 W3        29.73S FOG
HALLOCK        FOG       34  32  93 CALM      29.74S VSB 3/4
ROSEAU         HAZE      36  30  80 CALM      29.73S VSB 1/4
WARROAD        FOG       34  28  80 CALM      29.74R VSB 3/4
THIEF RVR FALL LGT SNOW  31  30  96 W6        29.75S FOG     WCI  25
CROOKSTON      CLOUDY    30  30 100 W7        29.77R WCI  23
FOSSTON        FOG       30  30 100 CALM      29.75R VSB 1/2
DETROIT LAKES  CLOUDY    32  32 100 W5        29.76R FOG     WCI  27
MOORHEAD       CLOUDY    32  28  86 W8        29.79R WCI  25
PARK RAPIDS    CLOUDY    33  31  92 NW7       29.72S FOG     WCI  27
MAHNOMEN       FOG       32  32 100 W5        29.75R VSB 3/4 WCI  27
$$
MNZ006-009>011-018-025>026-230100-
   North Central Minnesota

CITY           SKY/WX    TMP DP  RH WIND       PRES   REMARKS
BAUDETTE       CLOUDY    34  33  96 CALM      29.72R
FLAG ISLAND    FOG       32  32 100 SE3       29.72S VSB 1
INTL FALLS     CLOUDY    34  33  96 CALM      29.72R FOG
6HR MIN TEMP:  34; 6HR MAX TEMP:  39;

WASKISH        FOG       34  34 100 CALM      29.73S VSB 1
LONGVILLE      FOG       36  34  93 CALM      29.72S VSB 3/4
GRAND RAPIDS   CLOUDY    35  34  96 NW5       29.73S WCI  31
CRANE LAKE     CLOUDY    34  32  93 CALM      29.73S FOG
ORR            FLURRIES  32  30  93 CALM      29.70R
COOK           MIX PCPN  34  32  93 CALM      29.72R
WALKER         CLOUDY    35  34  99 CALM      29.72S FOG
$$
MNZ012-019>021-037-230100-
   Northeast Minnesota

CITY           SKY/WX    TMP DP  RH WIND       PRES   REMARKS
DULUTH         CLOUDY    35  34  96 NW5       29.70R FOG     WCI  31
6HR MIN TEMP:  35; 6HR MAX TEMP:  37; 6HR PCP: TRACE;

ELY            FOG       34  34 100 CALM      29.70R VSB 1/2
HIBBING        CLOUDY    33  33 100 CALM      29.71R FOG
EVELETH        DRIZZLE   35  34  96 CALM      29.72R
DULUTH HARBOR  CLOUDY    37  36  93 CALM      29.73S FOG
TWO HARBORS    CLOUDY    39  34  81 CALM      29.69R
SILVER BAY     FOG       36  36 100 CALM      29.69R VSB 1/2
GRAND MARAIS     N/A     37  35  92 CALM      29.70S
G MARAIS ARPRT FOG       32  28  86 CALM      29.67S VSB 1
$$
MNZ029>031-032-039>041-046>048-054>057-064-230100-
   West Central Minnesota

CITY           SKY/WX    TMP DP  RH WIND       PRES   REMARKS
FERGUS FALLS   CLOUDY    30  30 100 W5        29.81S FOG     WCI  25
WHEATON        CLOUDY    39  39 100 W8        29.81S
MORRIS         PTCLDY    34  32  93 W7        29.77S FOG     WCI  28
ALEXANDRIA     CLOUDY    31  31 100 NW9       29.76S FOG     WCI  23
ELBOW LAKE     CLOUDY    31  31 100 NW5       29.77S FOG     WCI  26
WADENA         FOG       30  30 100 W6        29.75R VSB 1   WCI  24
GLENWOOD       CLOUDY    30  30 100 NW8       29.77R FOG     WCI  23
APPLETON       CLOUDY    34  30  86 NW6       29.79S FOG     WCI  29
ORTONVILLE     CLOUDY    32  28  86 CALM      29.79S
MADISON        CLOUDY    36  36 100 W9        29.80S
WILLMAR        CLOUDY    34  34 100 CALM      29.79S FOG
$$
MNZ033>034-036-042>043-049>051-058-059-230100-
   Central Minnesota

CITY           SKY/WX    TMP DP  RH WIND       PRES   REMARKS
ST CLOUD       CLOUDY    35  35 100 W12       29.75R FOG     WCI  27
6HR MIN TEMP:  35; 6HR MAX TEMP:  38;

SAUK CENTRE    CLOUDY    32  32 100 W5        29.77R FOG     WCI  27
PAYNESVILLE    FOG       32  32 100 W10       29.77S VSB 1   WCI  24
AITKIN         CLOUDY    37  34  87 CALM      29.71S
PINE RIVER     CLOUDY    36  36 100 CALM      29.76S
BRAINERD       CLOUDY    35  34  96 N3        29.73S
STAPLES        FOG       32  32 100 W8        29.75R VSB 3/4 WCI  25
LONG PRAIRIE   CLOUDY    32  32 100 SW6       29.76R FOG     WCI  26
LITTLE FALLS   CLOUDY    34  32  93 W7        29.75R FOG     WCI  28
LITCHFIELD     CLOUDY    34  34 100 W8G16     29.78R FOG     WCI  27
BUFFALO        CLOUDY    36  34  92 W8        29.77R FOG
MAPLE LAKE     CLOUDY    35  35  98 W5        29.77R FOG     WCI  31
HUTCHINSON     CLOUDY    33  34 100 W14       29.78S FOG     WCI  24
$$
MNZ037-044-045-052-053-230100-
   East Central Minnesota

CITY           SKY/WX    TMP DP  RH WIND       PRES   REMARKS
PRINCETON      CLOUDY    37  36  93 CALM      29.75R FOG
MORA           CLOUDY    36  34  93 W3        29.75R
CAMBRIDGE      CLOUDY    39  37  93 W5        29.73R
RUSH CITY      CLOUDY    36  34  93 W3        29.74R
MOOSE LAKE     CLOUDY    36  34  93 N3        29.71R
HINCKLEY       CLOUDY    36  36 100 W3        29.73S
CLOQUET        CLOUDY    36  36 100 NW5       29.71R FOG
MCGREGOR       CLOUDY    36  34  93 NW3       29.73R
$$
MNZ071>073-080-081-089-090-097-098-230100-
   Southwest Minnesota

CITY           SKY/WX    TMP DP  RH WIND       PRES   REMARKS
MONTEVIDEO     CLOUDY    32  32 100 NW5       29.81S FOG     WCI  27
GRANITE FALLS  CLOUDY    34  32  93 W8        29.81S FOG     WCI  27
CANBY          CLOUDY    32  31  94 NW12      29.82R WCI  23
MARSHALL       CLOUDY    32  29  88 NW13      29.81R WCI  22
REDWOOD FALLS  CLOUDY    33  29  85 NW8       29.79S FOG     WCI  26
OLIVIA         CLOUDY    32  32 100 NW9       29.78S FOG     WCI  24
PIPESTONE      CLOUDY    30  28  93 NW13      29.80R WCI  20
WINDOM         CLOUDY    32  32 100 NW12      29.79R FOG     WCI  23
WORTHINGTON    CLOUDY    29  29 100 NW15      29.80R FOG     WCI  18
JACKSON        CLOUDY    32  32 100 W9        29.79R FOG     WCI  24
TRACY          CLOUDY    32  31  96 NW12      29.81R FOG     WCI  23
SLAYTON        CLOUDY    29  29  99 NW15      29.79S FOG     WCI  18
$$
MNZ065>067-074>077-082>085-091>093-230100-
   South Central Minnesota

CITY           SKY/WX    TMP DP  RH WIND       PRES   REMARKS
MANKATO        MIX PCPN  34  33  96 NW10      29.78R FOG     WCI  26
NEW ULM        CLOUDY    34  34 100 NW13      29.78S FOG     WCI  25
ST JAMES       CLOUDY    34  34 100 NW10      29.80R FOG     WCI  26
FAIRMONT       FOG       34  33  96 NW10      29.79R VSB 1   WCI  26
GLENCOE        CLOUDY    34  35 100 W10       29.77R FOG     WCI  26
OWATONNA       CLOUDY    36  34  93 W6        29.76R FOG
WASECA         CLOUDY    34  34 100 W13       29.78R FOG     WCI  25
ALBERT LEA     FOG       36  36 100 NW5       29.75S VSB 1
$$
MNZ078>079-086>088-094>096-230100-
   Southeast Minnesota

CITY           SKY/WX    TMP DP  RH WIND       PRES   REMARKS
ROCHESTER      CLOUDY    34  34 100 NW9       29.74R FOG     WCI  27
6HR MIN TEMP:  33; 6HR MAX TEMP:  35;

RED WING       CLOUDY    37  36  93 CALM      29.75R
STANTON        CLOUDY    37  34  90 W5        29.75R
DODGE CENTER   CLOUDY    34  34 100 CALM      29.74R FOG
WINONA         CLOUDY    36  34  93 NW5       29.74S
AUSTIN         CLOUDY    36  34  93 NW6       29.75R FOG
PRESTON        CLOUDY    33  32  96 NW8       29.74R FOG     WCI  26
$$
ABBREVIATIONS USED IN REMARKS
   TC - TEMPERATURES IN CELSIUS
  WCI - WIND CHILL INDEX
   HX - HEAT INDEX
  VSB - VISIBILITY
$$



USA.gov is the U.S. government's official web portal to all federal, state and local government web resources and services.